Location: Goudex
(43.3760°N, 0.9543°E)
Time: 20:51:33
(UTC+00:00)

Cosmos 2298 Rocket - Pass Details

Date: 20 November 2019
Orbit: 777 x 783 km, 74.0° (Epoch: 12 December)

Event Time Altitude Azimuth Distance (km) Brightness Sun altitude
Rises 04:37:49 0° 194° (SSW) 3,248 7.2 -24.8°
Reaches altitude 10° 04:40:11 10° 193° (SSW) 2,324 6.4 -24.3°
Maximum altitude 04:45:28 77° 108° (ESE) 801 4.1 -23.4°
Drops below altitude 10° 04:50:46 10° 23° (NNE) 2,337 6.7 -22.4°
Sets 04:53:10 0° 22° (NNE) 3,268 7.5 -22.0°
